Flag for U.S.A. Weather past 2 weeks in Bowling Green, Kentucky, U.S.A.

Now
73 °F

Sunny.


Feels Like: 76 °F
Forecast: 61 / 85 °F
Wind: 6 mph from South

Location: Glasgow Municipal Airport

Current Time: Oct 2, 2014 at 9:48:31 AM

Latest Report: Oct 2, 2014 at 9:15 AM


Visibility: 10 mi

Pressure: 30.05 "Hg

Humidity: 62%

Dew point: 59 °F

Location of Bowling GreenLocation

Historic Weather in Bowling Green — Graph

°F

Bowling Green temperature yesterday

Maximum temperature yesterday: 85 °F (at 2:35 PM)
Minimum temperature yesterday: 55 °F (at 5:55 AM)
Average temperature yesterday: 69 °F

Past Weeks' High & Low Weather Summary

 TemperatureHumidityPressure
High85 °F (Oct 1, 2:35 PM)100% (Sep 17, 8:15 AM)30.34 "Hg (Sep 17, 8:15 AM)
Low44 °F (Sep 23, 6:55 AM)28% (Sep 30, 3:15 PM)29.89 "Hg (Sep 30, 4:15 PM)
Average66 °F73%30.10 "Hg
* Reported Sep 17 8:15 AM — Oct 2 8:55 AM, Bowling Green, Weather by CustomWeather, © 2014

Note: Actual official high and low records may vary slightly from our data, if they occured in-between our weather recording intervals... More about our weather records

Advertising

Bowling Green weather history for previous 24 hours

 ConditionsComfort  
Time TempWeatherWind HumidityBarometerVisibility
8:55 AM
Oct 2
72 °FSunny.6 mph64%30.05 "Hg10 mi
8:15 AM69 °FSunny.6 mph69%30.05 "Hg10 mi
7:55 AM67 °FSunny.No wind73%30.05 "Hg10 mi
7:35 AM64 °FClear.No wind77%30.04 "Hg10 mi
7:15 AM63 °FClear.No wind79%30.04 "Hg10 mi
6:55 AM63 °FClear.No wind79%30.04 "Hg10 mi
6:35 AM63 °FClear.No wind81%30.03 "Hg10 mi
6:15 AM63 °FClear.No wind81%30.02 "Hg10 mi
5:55 AM63 °FClear.No wind79%30.01 "Hg10 mi
5:35 AM63 °FClear.No wind79%30.01 "Hg10 mi
5:15 AM63 °FClear.No wind79%30.00 "Hg10 mi
4:55 AM63 °FClear.No wind79%29.99 "Hg10 mi
4:35 AM63 °FClear.No wind79%29.99 "Hg10 mi
4:15 AM64 °FClear.No wind76%29.99 "Hg10 mi
3:55 AM64 °FClear.No wind76%29.99 "Hg10 mi
3:15 AM65 °FClear.No wind73%29.98 "Hg10 mi
2:55 AM65 °FClear.No wind74%29.98 "Hg10 mi
2:35 AM65 °FClear.No wind73%29.98 "Hg10 mi
2:15 AM65 °FClear.No wind72%29.99 "Hg10 mi
1:55 AM64 °FClear.No wind72%29.98 "Hg10 mi
1:35 AM64 °FClear.No wind72%29.98 "Hg10 mi
1:15 AM64 °FClear.No wind72%29.98 "Hg10 mi
12:55 AM62 °FClear.No wind75%29.98 "Hg10 mi
12:35 AM63 °FClear.No wind73%29.98 "Hg10 mi
12:15 AM65 °FClear.No wind69%29.98 "Hg10 mi
11:55 PM
Oct 1
63 °FClear.No wind73%29.98 "Hg10 mi
11:35 PM62 °FClear.No wind76%29.98 "Hg10 mi
11:15 PM61 °FClear.No wind78%29.98 "Hg10 mi
10:55 PM61 °FClear.No wind78%29.98 "Hg10 mi
10:35 PM62 °FClear.No wind78%29.99 "Hg10 mi
10:15 PM62 °FClear.No wind76%29.99 "Hg10 mi
9:55 PM63 °FClear.No wind74%29.99 "Hg10 mi
9:35 PM64 °FClear.No wind73%29.99 "Hg10 mi
9:15 PM65 °FClear.No wind70%29.99 "Hg10 mi
8:55 PM66 °FPassing clouds.No wind67%29.99 "Hg10 mi
8:35 PM68 °FPassing clouds.No wind63%29.98 "Hg10 mi
8:15 PM68 °FClear.No wind63%29.97 "Hg10 mi
7:55 PM69 °FClear.5 mph61%29.97 "Hg10 mi
7:35 PM70 °FClear.5 mph59%29.97 "Hg10 mi
7:15 PM69 °FSunny.5 mph62%29.96 "Hg10 mi
6:55 PM70 °FSunny.No wind59%29.96 "Hg10 mi
6:35 PM73 °FSunny.No wind52%29.96 "Hg10 mi
6:15 PM78 °FSunny.No wind43%29.95 "Hg10 mi
5:55 PM81 °FSunny.No wind34%29.94 "Hg10 mi
5:35 PM82 °FSunny.No wind32%29.94 "Hg10 mi
5:15 PM83 °FSunny.3 mph32%29.94 "Hg10 mi
4:55 PM84 °FSunny.No wind31%29.94 "Hg10 mi
4:35 PM84 °FSunny.5 mph31%29.95 "Hg10 mi
4:15 PM85 °FSunny.5 mph30%29.94 "Hg10 mi
3:55 PM85 °FSunny.3 mph31%29.95 "Hg10 mi
3:15 PM85 °FSunny.3 mph30%29.95 "Hg10 mi
2:55 PM85 °FSunny.No wind29%29.96 "Hg10 mi
2:35 PM85 °FSunny.No wind28%29.96 "Hg10 mi
2:15 PM85 °FSunny.No wind29%29.96 "Hg10 mi
1:55 PM85 °FSunny.3 mph29%29.97 "Hg10 mi
1:35 PM85 °FSunny.3 mph29%29.97 "Hg10 mi
1:15 PM85 °FSunny.5 mph30%29.98 "Hg10 mi
12:55 PM84 °FSunny.8 mph32%29.98 "Hg10 mi
12:35 PM83 °FSunny.8 mph35%29.99 "Hg10 mi
12:15 PM83 °FSunny.No wind36%30.00 "Hg10 mi
11:55 AM82 °FSunny.5 mph38%30.00 "Hg10 mi
11:35 AM81 °FSunny.7 mph40%30.00 "Hg10 mi
11:15 AM80 °FSunny.5 mph42%30.00 "Hg10 mi
10:55 AM78 °FSunny.3 mph45%30.01 "Hg10 mi
10:15 AM75 °FSunny.5 mph51%30.01 "Hg10 mi
9:55 AM72 °FSunny.No wind57%30.01 "Hg10 mi
9:35 AM70 °FSunny.No wind64%30.01 "Hg10 mi
Weather by CustomWeather, © 2014

See weather overviewHow to use our weather pages